Precipitable_Water
0.26 0.20 0.19 0.19 0.20 0.23 0.23 0.22 0.22 0.20 0.19 0.19 0.19 0.20 0.19 0.19 0.23 0.25 0.24 0.26 0.28 0.22 0.22 0.26 0.25 0.24 0.25 0.26 0.26 0.27 0.33 0.32 0.34 0.34 0.36 0.38 0.41 0.45 0.48 0.52 0.57 0.61 0.63 0.68 0.68 0.65 0.61 0.63 0.65 0.67 0.70 0.71 0.71 0.73 0.76 0.77 0.79 0.80 0.74 0.72 0.69 0.74 0.78 0.74 0.69 0.69 0.68 0.63 0.61 0.60 0.59 0.57 0.55 0.64 0.65 0.65 0.69 0.71 0.70 0.70 0.67 0.66 0.67 0.66 0.63 0.64
0.23 0.19 0.19 0.21 0.22 0.22 0.24 0.23 0.22 0.21 0.20 0.19 0.20 0.19 0.20 0.19 0.20 0.27 0.26 0.27 0.27 0.22 0.25 0.27 0.23 0.23 0.25 0.27 0.26 0.27 0.28 0.29 0.32 0.34 0.34 0.36 0.39 0.43 0.47 0.50 0.55 0.61 0.66 0.65 0.65 0.67 0.66 0.63 0.64 0.67 0.68 0.69 0.64 0.67 0.71 0.72 0.74 0.76 0.76 0.71 0.71 0.69 0.71 0.75 0.71 0.68 0.65 0.62 0.59 0.55 0.56 0.55 0.55 0.58 0.63 0.63 0.66 0.63 0.63 0.60 0.58 0.59 0.60 0.61 0.61 0.62
0.18 0.17 0.22 0.22 0.22 0.23 0.24 0.24 0.23 0.23 0.21 0.19 0.20 0.21 0.20 0.22 0.23 0.30 0.27 0.26 0.29 0.22 0.22 0.26 0.22 0.23 0.27 0.28 0.28 0.26 0.26 0.29 0.34 0.36 0.38 0.37 0.37 0.40 0.43 0.47 0.54 0.58 0.58 0.58 0.62 0.67 0.66 0.66 0.64 0.65 0.67 0.69 0.68 0.68 0.68 0.72 0.73 0.74 0.75 0.72 0.73 0.67 0.68 0.74 0.75 0.69 0.65 0.63 0.62 0.58 0.53 0.56 0.59 0.71 0.75 0.74 0.65 0.65 0.61 0.59 0.61 0.62 0.63 0.63 0.62 0.65
0.15 0.18 0.23 0.23 0.23 0.23 0.23 0.23 0.23 0.23 0.23 0.22 0.19 0.21 0.19 0.24 0.22 0.21 0.28 0.29 0.28 0.24 0.26 0.26 0.21 0.22 0.26 0.26 0.26 0.28 0.28 0.30 0.36 0.37 0.39 0.42 0.41 0.42 0.43 0.45 0.47 0.52 0.54 0.53 0.57 0.61 0.66 0.69 0.68 0.65 0.65 0.68 0.70 0.69 0.69 0.72 0.72 0.74 0.73 0.73 0.72 0.67 0.70 0.74 0.76 0.73 0.71 0.67 0.61 0.63 0.56 0.61 0.60 0.60 0.60 0.61 0.61 0.59 0.59 0.59 0.63 0.63 0.63 0.64 0.67 0.68
0.18 0.27 0.24 0.23 0.23 0.24 0.24 0.23 0.22 0.21 0.21 0.23 0.24 0.22 0.21 0.25 0.23 0.22 0.30 0.33 0.30 0.29 0.26 0.24 0.20 0.19 0.22 0.24 0.24 0.27 0.30 0.29 0.28 0.30 0.30 0.34 0.39 0.43 0.45 0.47 0.48 0.50 0.55 0.59 0.60 0.61 0.65 0.65 0.66 0.66 0.66 0.69 0.69 0.70 0.70 0.72 0.72 0.72 0.72 0.75 0.72 0.69 0.69 0.73 0.75 0.74 0.70 0.61 0.58 0.56 0.55 0.55 0.54 0.55 0.57 0.56 0.55 0.58 0.57 0.59 0.59 0.58 0.64 0.66 0.66 0.68
0.19 0.25 0.26 0.24 0.24 0.23 0.25 0.22 0.22 0.21 0.20 0.25 0.24 0.24 0.24 0.26 0.24 0.25 0.25 0.24 0.23 0.25 0.30 0.22 0.15 0.15 0.26 0.26 0.25 0.31 0.28 0.27 0.29 0.27 0.27 0.29 0.31 0.34 0.35 0.37 0.43 0.46 0.50 0.55 0.59 0.60 0.62 0.65 0.69 0.71 0.72 0.69 0.69 0.71 0.73 0.75 0.74 0.73 0.74 0.76 0.73 0.71 0.71 0.72 0.73 0.73 0.67 0.61 0.56 0.49 0.45 0.43 0.45 0.46 0.48 0.49 0.50 0.51 0.55 0.55 0.54 0.62 0.65 0.66 0.66 0.67
0.25 0.26 0.25 0.26 0.26 0.25 0.26 0.26 0.29 0.24 0.21 0.21 0.24 0.26 0.23 0.23 0.25 0.26 0.25 0.20 0.17 0.16 0.29 0.28 0.16 0.14 0.24 0.26 0.26 0.27 0.27 0.28 0.33 0.31 0.31 0.30 0.30 0.31 0.32 0.35 0.38 0.42 0.45 0.48 0.54 0.61 0.62 0.64 0.68 0.70 0.71 0.72 0.69 0.71 0.76 0.78 0.76 0.76 0.77 0.77 0.73 0.70 0.68 0.71 0.72 0.72 0.68 0.64 0.58 0.50 0.47 0.45 0.45 0.46 0.48 0.56 0.55 0.57 0.56 0.55 0.57 0.58 0.63 0.63 0.63 0.65
0.23 0.24 0.24 0.25 0.25 0.25 0.24 0.23 0.30 0.25 0.22 0.19 0.32 0.29 0.28 0.27 0.26 0.27 0.25 0.24 0.19 0.26 0.28 0.23 0.21 0.15 0.15 0.21 0.30 0.27 0.25 0.27 0.30 0.31 0.31 0.32 0.33 0.33 0.33 0.34 0.36 0.39 0.44 0.47 0.49 0.52 0.59 0.64 0.64 0.67 0.72 0.74 0.73 0.74 0.77 0.78 0.78 0.75 0.78 0.78 0.74 0.70 0.68 0.70 0.72 0.69 0.69 0.63 0.58 0.50 0.48 0.46 0.47 0.50 0.51 0.51 0.55 0.59 0.57 0.55 0.55 0.58 0.59 0.62 0.62 0.61
0.26 0.21 0.24 0.24 0.24 0.23 0.22 0.24 0.34 0.31 0.24 0.28 0.33 0.32 0.30 0.30 0.31 0.30 0.27 0.25 0.25 0.25 0.19 0.24 0.26 0.17 0.15 0.20 0.29 0.28 0.23 0.25 0.29 0.30 0.31 0.32 0.34 0.35 0.36 0.37 0.37 0.38 0.40 0.41 0.45 0.51 0.55 0.59 0.63 0.68 0.71 0.76 0.79 0.79 0.76 0.77 0.77 0.78 0.80 0.79 0.77 0.71 0.68 0.70 0.70 0.68 0.68 0.64 0.60 0.53 0.48 0.45 0.49 0.57 0.54 0.51 0.54 0.54 0.56 0.53 0.54 0.56 0.56 0.58 0.59 0.59
0.25 0.24 0.24 0.22 0.22 0.22 0.26 0.28 0.30 0.32 0.26 0.32 0.33 0.33 0.32 0.33 0.31 0.30 0.28 0.26 0.25 0.23 0.17 0.19 0.26 0.20 0.16 0.21 0.28 0.29 0.23 0.24 0.29 0.32 0.30 0.32 0.35 0.37 0.39 0.41 0.42 0.42 0.43 0.43 0.43 0.45 0.52 0.62 0.64 0.68 0.71 0.73 0.77 0.82 0.81 0.80 0.81 0.79 0.80 0.78 0.76 0.70 0.68 0.70 0.70 0.67 0.65 0.65 0.66 0.58 0.50 0.46 0.48 0.51 0.53 0.53 0.53 0.55 0.56 0.53 0.52 0.53 0.53 0.53 0.53 0.53
0.26 0.27 0.28 0.22 0.20 0.23 0.27 0.29 0.30 0.34 0.35 0.36 0.34 0.30 0.30 0.29 0.28 0.28 0.25 0.23 0.22 0.17 0.17 0.21 0.25 0.20 0.15 0.18 0.24 0.26 0.34 0.29 0.32 0.31 0.32 0.33 0.34 0.35 0.38 0.38 0.39 0.39 0.41 0.42 0.43 0.44 0.46 0.52 0.64 0.68 0.68 0.68 0.74 0.81 0.82 0.78 0.80 0.79 0.77 0.77 0.74 0.71 0.70 0.71 0.69 0.65 0.64 0.67 0.67 0.61 0.55 0.50 0.49 0.48 0.49 0.50 0.52 0.56 0.54 0.54 0.51 0.52 0.54 0.54 0.51 0.50
0.23 0.26 0.24 0.25 0.26 0.23 0.25 0.25 0.29 0.33 0.37 0.34 0.30 0.28 0.27 0.26 0.27 0.23 0.22 0.23 0.16 0.14 0.20 0.23 0.22 0.21 0.13 0.15 0.23 0.28 0.25 0.26 0.27 0.29 0.32 0.34 0.35 0.35 0.36 0.36 0.38 0.39 0.41 0.41 0.42 0.43 0.45 0.48 0.56 0.62 0.63 0.64 0.69 0.73 0.77 0.78 0.79 0.78 0.77 0.77 0.73 0.71 0.68 0.71 0.68 0.63 0.65 0.67 0.66 0.64 0.61 0.54 0.52 0.51 0.49 0.49 0.51 0.53 0.52 0.55 0.52 0.54 0.54 0.55 0.53 0.52
0.22 0.23 0.24 0.24 0.26 0.23 0.21 0.20 0.25 0.28 0.30 0.30 0.27 0.26 0.21 0.18 0.21 0.18 0.20 0.18 0.17 0.15 0.23 0.24 0.22 0.18 0.15 0.17 0.29 0.29 0.26 0.26 0.29 0.28 0.31 0.31 0.33 0.35 0.36 0.37 0.38 0.41 0.42 0.41 0.43 0.45 0.47 0.49 0.57 0.61 0.59 0.60 0.64 0.67 0.72 0.75 0.77 0.78 0.78 0.76 0.73 0.69 0.69 0.71 0.68 0.64 0.65 0.67 0.66 0.65 0.65 0.61 0.57 0.54 0.51 0.51 0.53 0.54 0.53 0.56 0.55 0.54 0.52 0.56 0.53 0.53
0.17 0.20 0.20 0.22 0.24 0.26 0.24 0.17 0.22 0.20 0.24 0.25 0.24 0.23 0.20 0.16 0.15 0.14 0.15 0.15 0.15 0.18 0.22 0.21 0.23 0.16 0.19 0.23 0.29 0.27 0.27 0.28 0.29 0.31 0.30 0.31 0.32 0.33 0.35 0.37 0.39 0.41 0.42 0.42 0.45 0.47 0.51 0.55 0.59 0.61 0.59 0.60 0.62 0.66 0.70 0.74 0.76 0.77 0.76 0.76 0.73 0.71 0.70 0.71 0.69 0.67 0.66 0.67 0.67 0.68 0.67 0.66 0.64 0.58 0.54 0.53 0.55 0.58 0.55 0.58 0.58 0.55 0.54 0.55 0.56 0.56
0.12 0.15 0.22 0.20 0.20 0.24 0.22 0.20 0.22 0.22 0.25 0.25 0.27 0.24 0.21 0.19 0.17 0.14 0.14 0.13 0.14 0.15 0.23 0.27 0.19 0.16 0.17 0.25 0.30 0.31 0.32 0.30 0.31 0.30 0.32 0.33 0.33 0.35 0.36 0.38 0.40 0.42 0.44 0.44 0.46 0.49 0.52 0.55 0.58 0.58 0.61 0.63 0.65 0.67 0.71 0.74 0.76 0.76 0.75 0.76 0.74 0.73 0.73 0.73 0.71 0.70 0.68 0.68 0.68 0.70 0.70 0.68 0.68 0.65 0.59 0.57 0.58 0.62 0.58 0.59 0.60 0.58 0.57 0.57 0.58 0.60
0.12 0.13 0.23 0.22 0.22 0.23 0.21 0.24 0.23 0.20 0.19 0.23 0.25 0.25 0.19 0.17 0.21 0.15 0.18 0.17 0.17 0.17 0.19 0.22 0.18 0.21 0.21 0.31 0.32 0.32 0.31 0.30 0.31 0.31 0.33 0.33 0.35 0.37 0.36 0.38 0.40 0.42 0.44 0.48 0.48 0.50 0.56 0.60 0.60 0.62 0.62 0.63 0.65 0.68 0.71 0.74 0.76 0.75 0.75 0.77 0.77 0.76 0.79 0.78 0.76 0.75 0.73 0.73 0.73 0.72 0.71 0.70 0.69 0.68 0.66 0.62 0.61 0.63 0.63 0.62 0.61 0.60 0.60 0.60 0.61 0.63
0.15 0.12 0.19 0.19 0.21 0.20 0.22 0.23 0.23 0.23 0.14 0.22 0.21 0.17 0.19 0.25 0.21 0.20 0.20 0.21 0.17 0.15 0.13 0.17 0.18 0.20 0.27 0.25 0.26 0.28 0.27 0.28 0.29 0.30 0.32 0.33 0.35 0.36 0.36 0.38 0.40 0.42 0.44 0.47 0.51 0.52 0.53 0.59 0.62 0.62 0.62 0.63 0.66 0.68 0.71 0.74 0.77 0.77 0.77 0.77 0.78 0.80 0.83 0.82 0.80 0.79 0.80 0.80 0.78 0.76 0.74 0.73 0.71 0.69 0.67 0.66 0.65 0.63 0.65 0.64 0.64 0.64 0.65 0.63 0.64 0.67
0.14 0.15 0.23 0.20 0.18 0.21 0.23 0.23 0.23 0.24 0.23 0.21 0.16 0.20 0.26 0.26 0.25 0.21 0.15 0.18 0.16 0.13 0.13 0.18 0.17 0.16 0.17 0.16 0.29 0.28 0.26 0.26 0.27 0.28 0.30 0.32 0.34 0.34 0.36 0.37 0.40 0.43 0.45 0.47 0.51 0.56 0.58 0.59 0.61 0.63 0.65 0.67 0.68 0.70 0.72 0.75 0.80 0.83 0.84 0.83 0.82 0.82 0.81 0.83 0.83 0.82 0.82 0.83 0.82 0.81 0.79 0.77 0.76 0.74 0.71 0.71 0.71 0.70 0.67 0.66 0.66 0.67 0.69 0.66 0.68 0.71
0.19 0.12 0.17 0.21 0.19 0.21 0.23 0.22 0.20 0.22 0.24 0.20 0.20 0.27 0.19 0.17 0.17 0.21 0.19 0.13 0.13 0.12 0.13 0.16 0.18 0.17 0.16 0.18 0.27 0.26 0.26 0.27 0.27 0.28 0.29 0.30 0.33 0.34 0.35 0.37 0.39 0.43 0.45 0.46 0.48 0.52 0.57 0.60 0.62 0.66 0.68 0.70 0.72 0.74 0.77 0.79 0.82 0.84 0.87 0.88 0.89 0.87 0.87 0.86 0.87 0.87 0.86 0.86 0.86 0.86 0.85 0.83 0.82 0.81 0.79 0.78 0.77 0.77 0.71 0.68 0.67 0.67 0.69 0.71 0.71 0.70
0.23 0.13 0.14 0.23 0.22 0.22 0.21 0.19 0.14 0.20 0.23 0.24 0.24 0.20 0.22 0.18 0.17 0.16 0.20 0.20 0.18 0.15 0.15 0.16 0.17 0.16 0.20 0.21 0.23 0.26 0.28 0.29 0.27 0.28 0.29 0.31 0.33 0.34 0.36 0.38 0.38 0.40 0.42 0.45 0.48 0.51 0.56 0.61 0.66 0.67 0.69 0.71 0.74 0.75 0.77 0.79 0.80 0.81 0.85 0.87 0.89 0.92 0.93 0.91 0.88 0.88 0.86 0.87 0.87 0.87 0.88 0.88 0.87 0.85 0.83 0.83 0.83 0.82 0.81 0.76 0.71 0.70 0.70 0.72 0.73 0.71
0.21 0.24 0.13 0.20 0.25 0.24 0.17 0.21 0.18 0.19 0.21 0.23 0.20 0.19 0.22 0.20 0.25 0.20 0.20 0.19 0.17 0.16 0.16 0.15 0.14 0.18 0.23 0.31 0.29 0.29 0.30 0.30 0.29 0.29 0.30 0.31 0.33 0.35 0.37 0.38 0.40 0.41 0.42 0.43 0.46 0.48 0.49 0.54 0.61 0.68 0.70 0.72 0.75 0.78 0.80 0.81 0.79 0.80 0.83 0.86 0.87 0.88 0.91 0.92 0.93 0.92 0.90 0.89 0.87 0.86 0.85 0.85 0.86 0.86 0.88 0.87 0.87 0.87 0.88 0.87 0.82 0.77 0.76 0.77 0.75 0.75
0.17 0.19 0.13 0.15 0.18 0.19 0.19 0.25 0.26 0.25 0.23 0.22 0.21 0.21 0.23 0.21 0.20 0.17 0.14 0.19 0.18 0.15 0.13 0.13 0.12 0.15 0.30 0.31 0.29 0.30 0.32 0.30 0.31 0.31 0.31 0.32 0.34 0.36 0.37 0.39 0.40 0.41 0.42 0.44 0.45 0.46 0.46 0.47 0.49 0.53 0.60 0.69 0.74 0.77 0.78 0.80 0.83 0.82 0.83 0.89 0.89 0.89 0.88 0.91 0.94 0.95 0.95 0.95 0.93 0.90 0.86 0.84 0.85 0.87 0.88 0.86 0.87 0.88 0.90 0.92 0.91 0.90 0.86 0.81 0.81 0.80
0.18 0.17 0.15 0.12 0.13 0.15 0.21 0.24 0.26 0.26 0.25 0.24 0.22 0.19 0.22 0.22 0.21 0.18 0.13 0.14 0.19 0.20 0.20 0.18 0.15 0.15 0.30 0.30 0.32 0.31 0.31 0.30 0.31 0.31 0.31 0.33 0.35 0.37 0.38 0.40 0.41 0.42 0.42 0.44 0.44 0.45 0.45 0.45 0.45 0.46 0.49 0.52 0.56 0.62 0.69 0.75 0.78 0.81 0.84 0.86 0.86 0.85 0.86 0.89 0.91 0.93 0.95 0.97 0.98 0.98 0.97 0.94 0.89 0.86 0.85 0.84 0.85 0.86 0.89 0.92 0.95 0.98 0.96 0.92 0.89 0.87
0.21 0.12 0.11 0.12 0.12 0.13 0.17 0.19 0.21 0.22 0.22 0.21 0.22 0.23 0.22 0.19 0.21 0.20 0.19 0.21 0.19 0.20 0.19 0.19 0.17 0.19 0.32 0.36 0.37 0.34 0.32 0.31 0.32 0.33 0.32 0.33 0.35 0.37 0.39 0.41 0.42 0.42 0.43 0.44 0.45 0.46 0.45 0.46 0.46 0.44 0.43 0.44 0.47 0.51 0.55 0.60 0.67 0.71 0.76 0.79 0.83 0.86 0.89 0.93 0.94 0.94 0.94 0.96 0.98 1.00 0.99 1.00 1.00 0.97 0.94 0.90 0.88 0.85 0.86 0.88 0.92 0.97 0.97 0.97 1.00 0.96
0.13 0.18 0.14 0.10 0.12 0.15 0.16 0.18 0.14 0.15 0.16 0.15 0.18 0.23 0.25 0.23 0.22 0.23 0.23 0.22 0.18 0.18 0.19 0.17 0.14 0.17 0.34 0.35 0.36 0.36 0.33 0.31 0.30 0.32 0.33 0.33 0.35 0.36 0.38 0.39 0.41 0.43 0.44 0.44 0.44 0.45 0.45 0.45 0.44 0.44 0.44 0.43 0.44 0.46 0.49 0.50 0.53 0.57 0.63 0.69 0.72 0.76 0.81 0.87 0.97 0.99 0.98 0.98 0.98 1.00 1.00 1.00 1.03 1.01 1.00 1.00 1.00 0.97 0.97 0.95 0.93 0.94 0.95 0.96 0.96 0.99
0.16 0.15 0.17 0.11 0.08 0.08 0.08 0.09 0.12 0.15 0.18 0.17 0.20 0.18 0.18 0.19 0.21 0.21 0.17 0.18 0.15 0.17 0.18 0.15 0.15 0.19 0.30 0.32 0.32 0.31 0.28 0.28 0.29 0.29 0.31 0.33 0.32 0.33 0.35 0.37 0.39 0.41 0.41 0.43 0.44 0.44 0.44 0.45 0.45 0.45 0.45 0.45 0.45 0.45 0.47 0.47 0.48 0.51 0.53 0.54 0.57 0.59 0.63 0.70 0.78 0.85 0.95 0.98 0.96 0.97 0.97 1.00 1.05 1.04 1.02 1.02 1.02 1.01 1.01 1.03 1.01 1.00 0.99 0.98 0.97 0.98
0.19 0.21 0.20 0.17 0.13 0.12 0.14 0.15 0.23 0.20 0.19 0.16 0.18 0.19 0.18 0.18 0.20 0.20 0.20 0.17 0.15 0.18 0.18 0.21 0.20 0.18 0.23 0.27 0.27 0.27 0.27 0.26 0.26 0.26 0.26 0.28 0.31 0.34 0.37 0.37 0.38 0.39 0.41 0.42 0.43 0.44 0.45 0.44 0.44 0.44 0.44 0.45 0.45 0.45 0.46 0.46 0.47 0.48 0.49 0.50 0.52 0.53 0.53 0.55 0.58 0.61 0.64 0.71 0.85 0.91 0.96 1.00 1.01 1.01 1.02 1.04 1.05 1.04 1.03 1.04 1.05 1.05 1.03 1.02 1.00 0.98
0.21 0.17 0.19 0.19 0.18 0.17 0.18 0.18 0.21 0.20 0.17 0.17 0.17 0.19 0.20 0.20 0.20 0.19 0.16 0.14 0.19 0.17 0.14 0.17 0.20 0.20 0.20 0.22 0.26 0.26 0.27 0.27 0.27 0.28 0.28 0.30 0.33 0.35 0.38 0.39 0.38 0.39 0.40 0.40 0.41 0.41 0.41 0.42 0.43 0.43 0.44 0.44 0.44 0.44 0.44 0.45 0.45 0.45 0.45 0.46 0.47 0.49 0.50 0.52 0.54 0.54 0.55 0.58 0.60 0.64 0.72 0.83 0.94 1.00 1.05 1.07 1.08 1.06 1.04 1.05 1.05 1.06 1.05 1.04 1.00 0.98
0.22 0.19 0.21 0.23 0.21 0.21 0.21 0.21 0.21 0.20 0.20 0.19 0.19 0.20 0.20 0.21 0.21 0.19 0.18 0.19 0.20 0.18 0.15 0.18 0.21 0.22 0.22 0.21 0.24 0.27 0.30 0.29 0.30 0.33 0.35 0.36 0.36 0.37 0.37 0.36 0.37 0.38 0.38 0.39 0.39 0.39 0.39 0.39 0.41 0.42 0.43 0.44 0.43 0.43 0.43 0.42 0.43 0.43 0.43 0.43 0.42 0.43 0.43 0.45 0.46 0.46 0.48 0.52 0.55 0.56 0.55 0.57 0.61 0.67 0.73 0.81 0.90 0.98 1.02 1.04 1.05 1.05 1.05 1.03 1.02 1.01
0.23 0.20 0.22 0.23 0.22 0.21 0.22 0.22 0.22 0.21 0.21 0.21 0.21 0.21 0.22 0.22 0.22 0.23 0.22 0.22 0.20 0.19 0.21 0.20 0.20 0.20 0.23 0.23 0.24 0.28 0.31 0.33 0.34 0.39 0.41 0.38 0.36 0.36 0.36 0.37 0.37 0.37 0.36 0.37 0.38 0.38 0.39 0.39 0.40 0.41 0.43 0.42 0.43 0.44 0.44 0.45 0.43 0.43 0.43 0.43 0.42 0.42 0.42 0.41 0.41 0.40 0.41 0.43 0.45 0.47 0.48 0.48 0.49 0.50 0.52 0.54 0.59 0.65 0.76 0.84 0.91 0.97 1.00 1.01 1.02 1.01
0.22 0.20 0.25 0.24 0.21 0.20 0.21 0.22 0.23 0.22 0.21 0.20 0.22 0.22 0.22 0.22 0.22 0.22 0.23 0.23 0.24 0.22 0.24 0.23 0.21 0.19 0.24 0.26 0.26 0.33 0.31 0.30 0.30 0.29 0.31 0.33 0.35 0.35 0.36 0.37 0.37 0.35 0.35 0.36 0.37 0.37 0.38 0.41 0.41 0.42 0.43 0.43 0.44 0.45 0.46 0.48 0.46 0.46 0.45 0.44 0.43 0.42 0.42 0.42 0.42 0.41 0.40 0.38 0.39 0.40 0.41 0.41 0.42 0.43 0.44 0.48 0.51 0.52 0.54 0.62 0.68 0.68 0.73 0.79 0.87 0.93
0.26 0.22 0.27 0.23 0.19 0.18 0.21 0.21 0.21 0.22 0.21 0.20 0.20 0.21 0.21 0.21 0.20 0.21 0.21 0.23 0.22 0.20 0.21 0.21 0.19 0.20 0.25 0.28 0.28 0.28 0.30 0.29 0.29 0.30 0.32 0.35 0.36 0.37 0.37 0.38 0.36 0.35 0.35 0.36 0.37 0.37 0.37 0.38 0.39 0.39 0.41 0.43 0.43 0.42 0.42 0.41 0.40 0.41 0.43 0.43 0.43 0.45 0.44 0.44 0.44 0.44 0.44 0.43 0.41 0.40 0.39 0.39 0.40 0.40 0.41 0.41 0.42 0.47 0.52 0.54 0.58 0.60 0.62 0.65 0.67 0.74
0.26 0.24 0.21 0.21 0.18 0.17 0.20 0.20 0.20 0.20 0.18 0.15 0.15 0.18 0.19 0.19 0.20 0.21 0.22 0.24 0.24 0.23 0.20 0.19 0.19 0.24 0.30 0.31 0.29 0.28 0.28 0.29 0.29 0.30 0.34 0.37 0.37 0.37 0.37 0.36 0.36 0.36 0.36 0.36 0.35 0.36 0.36 0.36 0.36 0.37 0.36 0.36 0.37 0.37 0.38 0.37 0.36 0.36 0.37 0.36 0.37 0.38 0.37 0.38 0.39 0.39 0.39 0.39 0.39 0.40 0.40 0.39 0.38 0.38 0.38 0.40 0.41 0.43 0.47 0.48 0.49 0.51 0.54 0.56 0.61 0.65
0.27 0.25 0.22 0.22 0.17 0.16 0.19 0.20 0.20 0.15 0.10 0.11 0.24 0.24 0.22 0.20 0.20 0.19 0.19 0.21 0.23 0.26 0.23 0.25 0.26 0.29 0.30 0.30 0.27 0.26 0.28 0.31 0.32 0.35 0.38 0.39 0.38 0.36 0.37 0.36 0.35 0.36 0.37 0.38 0.37 0.37 0.37 0.37 0.37 0.37 0.38 0.38 0.39 0.38 0.37 0.37 0.37 0.37 0.37 0.36 0.36 0.35 0.35 0.35 0.36 0.37 0.36 0.35 0.34 0.35 0.36 0.37 0.37 0.37 0.37 0.38 0.39 0.40 0.40 0.42 0.43 0.44 0.46 0.50 0.54 0.55
0.24 0.23 0.20 0.21 0.17 0.15 0.17 0.18 0.14 0.09 0.10 0.22 0.23 0.25 0.22 0.21 0.20 0.19 0.20 0.23 0.26 0.26 0.25 0.23 0.23 0.23 0.25 0.28 0.28 0.30 0.33 0.34 0.34 0.36 0.37 0.39 0.41 0.39 0.37 0.36 0.37 0.37 0.37 0.38 0.38 0.38 0.38 0.39 0.39 0.39 0.39 0.39 0.38 0.38 0.38 0.38 0.38 0.37 0.35 0.35 0.33 0.33 0.32 0.33 0.33 0.33 0.33 0.33 0.34 0.35 0.35 0.35 0.35 0.36 0.36 0.37 0.37 0.38 0.38 0.38 0.40 0.43 0.45 0.47 0.48 0.48
0.21 0.20 0.19 0.18 0.18 0.18 0.15 0.15 0.09 0.09 0.19 0.21 0.23 0.23 0.27 0.21 0.22 0.21 0.19 0.23 0.25 0.25 0.26 0.24 0.28 0.30 0.30 0.30 0.31 0.33 0.33 0.32 0.32 0.33 0.35 0.36 0.41 0.40 0.37 0.38 0.39 0.38 0.38 0.38 0.38 0.39 0.39 0.39 0.38 0.39 0.40 0.40 0.40 0.39 0.38 0.38 0.39 0.37 0.36 0.36 0.34 0.33 0.32 0.31 0.31 0.30 0.30 0.29 0.32 0.34 0.35 0.35 0.34 0.35 0.36 0.37 0.38 0.38 0.38 0.39 0.38 0.39 0.43 0.45 0.48 0.50
0.23 0.22 0.21 0.17 0.19 0.14 0.14 0.14 0.13 0.17 0.17 0.19 0.18 0.21 0.22 0.20 0.24 0.21 0.16 0.21 0.28 0.28 0.27 0.27 0.29 0.30 0.31 0.32 0.32 0.32 0.33 0.32 0.30 0.30 0.36 0.39 0.40 0.42 0.40 0.38 0.39 0.38 0.38 0.39 0.39 0.39 0.40 0.41 0.41 0.42 0.42 0.42 0.41 0.39 0.39 0.39 0.39 0.38 0.38 0.36 0.35 0.34 0.33 0.33 0.32 0.31 0.31 0.32 0.34 0.35 0.35 0.35 0.35 0.35 0.37 0.38 0.37 0.37 0.39 0.39 0.39 0.40 0.43 0.43 0.44 0.47
0.24 0.20 0.22 0.18 0.16 0.18 0.15 0.13 0.13 0.13 0.11 0.15 0.25 0.29 0.30 0.30 0.30 0.28 0.22 0.19 0.28 0.28 0.29 0.29 0.28 0.29 0.30 0.31 0.32 0.33 0.33 0.28 0.25 0.29 0.33 0.35 0.37 0.38 0.39 0.38 0.38 0.38 0.38 0.39 0.39 0.39 0.39 0.40 0.40 0.40 0.40 0.40 0.39 0.40 0.41 0.41 0.40 0.40 0.38 0.37 0.36 0.35 0.34 0.33 0.31 0.31 0.31 0.33 0.36 0.36 0.37 0.38 0.37 0.37 0.37 0.38 0.38 0.38 0.40 0.42 0.43 0.43 0.45 0.43 0.44 0.46
0.25 0.25 0.23 0.20 0.17 0.17 0.16 0.13 0.12 0.11 0.13 0.23 0.25 0.28 0.30 0.30 0.33 0.34 0.22 0.16 0.28 0.30 0.30 0.30 0.29 0.30 0.31 0.30 0.31 0.32 0.29 0.24 0.26 0.32 0.37 0.38 0.37 0.36 0.35 0.35 0.36 0.36 0.37 0.38 0.38 0.39 0.39 0.40 0.39 0.38 0.38 0.38 0.38 0.40 0.41 0.41 0.41 0.39 0.38 0.38 0.37 0.36 0.34 0.33 0.32 0.32 0.32 0.34 0.36 0.36 0.37 0.38 0.39 0.39 0.39 0.39 0.40 0.41 0.41 0.42 0.43 0.45 0.47 0.47 0.48 0.49
0.23 0.22 0.21 0.18 0.16 0.17 0.16 0.14 0.12 0.15 0.15 0.24 0.28 0.29 0.32 0.34 0.31 0.29 0.14 0.15 0.26 0.29 0.30 0.31 0.29 0.30 0.31 0.31 0.33 0.31 0.28 0.24 0.28 0.33 0.39 0.39 0.38 0.39 0.38 0.37 0.37 0.37 0.37 0.38 0.39 0.40 0.40 0.39 0.38 0.38 0.38 0.38 0.39 0.40 0.40 0.40 0.39 0.38 0.37 0.37 0.38 0.36 0.35 0.35 0.35 0.37 0.38 0.38 0.38 0.38 0.39 0.40 0.40 0.40 0.39 0.40 0.41 0.43 0.43 0.45 0.45 0.45 0.46 0.50 0.52 0.53
0.21 0.21 0.20 0.17 0.17 0.17 0.17 0.15 0.16 0.17 0.22 0.27 0.27 0.29 0.30 0.33 0.30 0.17 0.13 0.21 0.30 0.31 0.31 0.30 0.31 0.32 0.32 0.31 0.32 0.28 0.30 0.33 0.35 0.37 0.39 0.39 0.38 0.38 0.39 0.39 0.39 0.38 0.37 0.37 0.37 0.39 0.37 0.38 0.38 0.38 0.38 0.38 0.39 0.40 0.41 0.41 0.40 0.39 0.39 0.38 0.37 0.36 0.36 0.37 0.38 0.39 0.39 0.39 0.40 0.40 0.41 0.41 0.41 0.40 0.41 0.42 0.42 0.43 0.44 0.45 0.46 0.48 0.49 0.49 0.49 0.50
0.19 0.19 0.19 0.19 0.17 0.15 0.16 0.14 0.14 0.17 0.27 0.30 0.30 0.30 0.34 0.26 0.17 0.15 0.25 0.31 0.32 0.31 0.32 0.31 0.30 0.33 0.33 0.32 0.31 0.32 0.33 0.35 0.36 0.37 0.36 0.37 0.37 0.37 0.38 0.37 0.37 0.38 0.38 0.38 0.38 0.38 0.39 0.39 0.40 0.40 0.41 0.42 0.41 0.41 0.41 0.42 0.41 0.41 0.41 0.40 0.38 0.38 0.39 0.40 0.41 0.41 0.40 0.40 0.42 0.42 0.42 0.42 0.42 0.43 0.44 0.45 0.45 0.45 0.44 0.47 0.49 0.50 0.50 0.49 0.48 0.48
0.18 0.17 0.15 0.16 0.18 0.18 0.17 0.14 0.13 0.11 0.25 0.29 0.28 0.27 0.29 0.20 0.22 0.27 0.30 0.31 0.31 0.31 0.30 0.30 0.30 0.30 0.32 0.32 0.33 0.33 0.33 0.34 0.35 0.36 0.36 0.38 0.39 0.39 0.38 0.38 0.37 0.37 0.37 0.38 0.37 0.36 0.35 0.35 0.36 0.38 0.40 0.41 0.42 0.42 0.41 0.40 0.39 0.39 0.40 0.39 0.39 0.39 0.39 0.40 0.40 0.40 0.41 0.41 0.41 0.42 0.42 0.43 0.44 0.45 0.46 0.46 0.47 0.46 0.46 0.48 0.49 0.49 0.49 0.47 0.47 0.48
0.23 0.17 0.16 0.17 0.19 0.14 0.14 0.13 0.14 0.20 0.27 0.31 0.28 0.21 0.25 0.26 0.28 0.29 0.29 0.27 0.29 0.30 0.29 0.29 0.30 0.32 0.33 0.32 0.32 0.32 0.32 0.32 0.32 0.33 0.34 0.35 0.35 0.36 0.36 0.36 0.36 0.35 0.35 0.36 0.36 0.36 0.37 0.35 0.35 0.35 0.37 0.38 0.39 0.40 0.40 0.39 0.38 0.38 0.39 0.38 0.41 0.40 0.40 0.40 0.40 0.41 0.41 0.40 0.40 0.40 0.42 0.43 0.45 0.48 0.48 0.48 0.47 0.48 0.48 0.49 0.49 0.49 0.49 0.48 0.48 0.48
0.20 0.18 0.21 0.17 0.21 0.18 0.16 0.18 0.24 0.27 0.27 0.28 0.29 0.29 0.28 0.29 0.29 0.29 0.28 0.28 0.27 0.28 0.30 0.30 0.30 0.32 0.32 0.31 0.32 0.32 0.31 0.31 0.30 0.30 0.29 0.30 0.30 0.30 0.31 0.31 0.31 0.31 0.31 0.32 0.34 0.36 0.35 0.33 0.33 0.34 0.36 0.37 0.36 0.37 0.37 0.38 0.37 0.38 0.38 0.40 0.42 0.41 0.40 0.40 0.40 0.40 0.40 0.40 0.41 0.41 0.42 0.45 0.46 0.48 0.49 0.49 0.50 0.49 0.49 0.49 0.50 0.49 0.49 0.49 0.48 0.48
0.20 0.22 0.23 0.19 0.17 0.20 0.20 0.22 0.23 0.22 0.23 0.24 0.26 0.27 0.27 0.28 0.29 0.29 0.27 0.26 0.27 0.27 0.28 0.27 0.29 0.30 0.31 0.32 0.30 0.30 0.30 0.30 0.30 0.29 0.29 0.29 0.28 0.28 0.29 0.29 0.29 0.29 0.30 0.30 0.31 0.32 0.32 0.32 0.33 0.34 0.34 0.35 0.37 0.37 0.38 0.38 0.39 0.37 0.38 0.40 0.41 0.41 0.41 0.40 0.40 0.40 0.40 0.40 0.40 0.42 0.43 0.44 0.46 0.48 0.49 0.52 0.53 0.53 0.53 0.52 0.52 0.52 0.52 0.50 0.49 0.47
0.20 0.23 0.20 0.15 0.19 0.17 0.13 0.21 0.21 0.22 0.23 0.23 0.22 0.24 0.24 0.24 0.24 0.25 0.25 0.25 0.25 0.26 0.26 0.26 0.25 0.26 0.26 0.27 0.25 0.25 0.26 0.27 0.27 0.27 0.28 0.28 0.28 0.28 0.27 0.27 0.27 0.27 0.27 0.27 0.29 0.30 0.30 0.31 0.31 0.32 0.32 0.32 0.35 0.36 0.37 0.37 0.39 0.39 0.40 0.40 0.42 0.42 0.42 0.41 0.40 0.40 0.40 0.40 0.42 0.44 0.46 0.46 0.47 0.49 0.51 0.54 0.54 0.55 0.55 0.56 0.56 0.55 0.53 0.50 0.47 0.44
0.17 0.26 0.19 0.18 0.17 0.16 0.16 0.19 0.20 0.21 0.22 0.23 0.22 0.22 0.21 0.23 0.24 0.26 0.27 0.27 0.27 0.26 0.26 0.26 0.26 0.25 0.26 0.25 0.25 0.24 0.24 0.25 0.25 0.24 0.25 0.25 0.26 0.26 0.26 0.26 0.27 0.28 0.29 0.30 0.31 0.31 0.31 0.31 0.30 0.30 0.30 0.31 0.34 0.36 0.38 0.39 0.39 0.40 0.41 0.41 0.42 0.42 0.42 0.41 0.42 0.41 0.42 0.43 0.45 0.46 0.48 0.49 0.50 0.51 0.51 0.53 0.55 0.57 0.58 0.58 0.57 0.54 0.51 0.46 0.45 0.43
0.20 0.21 0.13 0.17 0.16 0.18 0.20 0.20 0.20 0.21 0.22 0.21 0.21 0.23 0.24 0.25 0.24 0.25 0.25 0.27 0.27 0.26 0.26 0.26 0.27 0.26 0.26 0.25 0.26 0.26 0.25 0.25 0.26 0.26 0.25 0.26 0.26 0.26 0.26 0.27 0.28 0.29 0.30 0.30 0.31 0.32 0.31 0.32 0.31 0.31 0.32 0.33 0.35 0.37 0.38 0.39 0.40 0.40 0.41 0.41 0.42 0.42 0.42 0.42 0.43 0.43 0.44 0.47 0.49 0.50 0.52 0.52 0.53 0.53 0.54 0.55 0.57 0.59 0.60 0.57 0.53 0.49 0.47 0.45 0.43 0.40
0.20 0.17 0.20 0.19 0.16 0.15 0.15 0.17 0.20 0.16 0.15 0.19 0.20 0.21 0.22 0.24 0.24 0.25 0.25 0.25 0.25 0.25 0.25 0.24 0.25 0.27 0.27 0.26 0.26 0.25 0.24 0.25 0.26 0.27 0.26 0.26 0.26 0.27 0.27 0.28 0.30 0.30 0.31 0.32 0.33 0.34 0.34 0.35 0.34 0.34 0.35 0.35 0.38 0.39 0.39 0.39 0.41 0.42 0.42 0.43 0.43 0.44 0.43 0.44 0.45 0.47 0.50 0.52 0.53 0.53 0.54 0.54 0.54 0.55 0.54 0.54 0.53 0.51 0.52 0.53 0.51 0.48 0.44 0.40 0.38 0.39
0.18 0.19 0.19 0.16 0.15 0.15 0.19 0.20 0.21 0.21 0.20 0.21 0.22 0.23 0.24 0.24 0.24 0.23 0.23 0.23 0.24 0.25 0.26 0.25 0.25 0.25 0.25 0.25 0.27 0.26 0.26 0.26 0.27 0.28 0.28 0.27 0.27 0.28 0.30 0.31 0.30 0.30 0.30 0.33 0.34 0.34 0.34 0.35 0.36 0.36 0.35 0.36 0.38 0.39 0.41 0.42 0.43 0.43 0.44 0.46 0.46 0.46 0.47 0.49 0.50 0.53 0.54 0.56 0.56 0.57 0.57 0.56 0.55 0.55 0.54 0.53 0.53 0.52 0.51 0.47 0.43 0.40 0.38 0.39 0.41 0.42
Wind_Speed
9 9 10 9 8 7 8 8 8 8 8 9 10 10 10 10 10 9 8 8 9 11 11 10 12 12 12 12 13 15 16 17 18 17 16 16 15 16 17 18 18 18 17 17 18 19 19 18 18 17 16 16 16 15 15 15 14 13 12 12 11 11 10 10 10 10 11 11 11 11 11 12 12 12 12 13 13 13 13 14 14 14 14 15 15 16
9 10 10 9 8 8 9 9 9 9 9 10 11 11 11 11 10 8 8 9 9 11 10 10 13 13 12 12 12 14 16 18 19 18 17 17 17 16 16 17 18 17 17 17 18 19 20 19 19 18 17 17 17 16 16 15 15 14 13 12 12 11 11 10 10 10 10 10 10 11 11 11 11 11 12 12 12 12 12 12 13 13 13 14 14 15
10 11 9 8 9 9 9 10 10 10 10 11 11 11 11 11 10 9 9 10 9 11 11 10 13 13 12 12 12 12 14 16 17 17 18 18 18 17 16 16 17 18 18 18 18 20 20 20 20 19 19 18 18 17 17 16 16 15 14 13 12 12 11 11 11 11 10 10 10 10 10 10 10 11 11 11 11 11 11 11 11 12 12 12 13 13
10 9 8 8 9 10 10 10 11 11 11 12 11 12 11 10 11 10 9 10 10 11 12 11 13 14 13 13 13 13 13 12 14 16 17 17 17 17 17 16 17 17 18 18 18 19 21 21 21 21 20 19 19 18 18 17 16 15 14 14 13 12 12 12 12 11 10 10 10 9 9 9 10 10 10 10 10 10 10 10 10 10 10 11 11 11
9 7 8 9 10 11 10 10 12 12 11 12 13 13 12 11 12 12 10 10 11 12 13 13 14 14 14 14 14 13 13 13 13 15 16 17 17 17 17 17 17 17 17 18 18 19 21 22 22 21 21 20 20 20 19 18 17 16 15 15 14 13 13 13 13 12 10 10 10 9 9 9 9 9 10 10 10 10 10 10 9 9 9 9 9 10
9 8 9 10 10 11 11 11 12 12 12 12 14 15 14 13 13 13 12 12 13 13 12 12 13 12 11 13 13 12 13 14 14 15 16 16 17 18 18 18 18 18 18 19 19 20 21 22 22 22 22 22 22 21 20 19 18 17 16 15 14 14 13 13 13 12 11 10 10 10 9 9 9 9 9 9 10 10 10 9 9 8 8 8 8 9
9 9 10 11 10 10 11 11 11 12 12 12 12 14 15 15 14 14 14 14 14 13 11 11 13 12 11 12 12 12 14 15 14 15 15 15 16 17 18 18 18 18 19 19 20 20 21 22 23 23 23 23 23 22 21 20 19 19 17 16 15 14 14 13 13 12 11 11 11 10 10 9 9 9 9 9 9 9 9 9 9 8 8 8 8 8
8 9 10 11 11 11 11 12 11 12 13 11 10 12 13 14 13 14 14 14 14 13 12 13 14 14 15 13 12 12 14 15 15 15 15 15 15 16 16 17 18 19 19 19 20 21 22 23 23 24 24 24 24 23 23 21 20 19 18 17 15 15 14 14 13 13 12 11 11 10 10 10 9 9 9 9 9 9 9 9 8 8 8 8 8 8
8 10 11 11 12 12 11 10 10 12 13 10 10 11 12 12 13 13 13 14 13 13 14 14 13 14 15 13 12 13 15 16 15 14 16 16 16 16 17 17 18 18 19 20 21 22 23 23 24 25 25 25 25 24 24 23 21 20 19 17 16 15 15 14 14 13 12 12 11 11 10 10 9 9 9 9 9 9 8 8 8 8 8 8 8 8
8 9 9 11 12 12 11 9 10 12 12 10 10 11 11 12 12 13 13 13 13 14 16 14 13 14 15 13 12 13 14 15 14 13 15 16 16 17 17 17 18 19 19 21 22 23 23 24 25 26 26 26 26 25 25 24 23 21 20 18 16 16 15 14 14 14 13 12 12 11 11 10 10 10 9 9 9 9 8 8 8 8 7 7 7 7
8 8 8 11 12 11 10 9 10 11 11 10 11 11 11 12 12 13 14 13 14 15 15 13 13 14 15 14 13 12 12 13 13 14 14 15 16 16 16 17 17 18 19 20 21 22 24 25 25 25 26 26 26 25 26 26 24 22 20 19 17 16 16 15 15 15 14 13 13 12 11 11 11 10 10 10 10 9 9 9 8 8 8 7 7 7
9 10 9 9 10 11 11 11 11 11 11 12 12 12 12 12 12 13 13 13 14 15 12 10 12 14 15 14 12 11 11 12 14 14 14 14 15 15 15 16 16 17 18 19 20 20 21 22 23 23 24 25 25 25 26 26 25 23 21 20 18 17 17 16 16 16 15 14 14 13 12 12 12 11 11 11 10 10 10 9 9 8 8 8 8 8
10 10 9 8 9 10 12 12 11 11 12 13 13 12 13 13 12 13 13 12 13 12 9 9 11 14 15 13 11 10 11 11 12 13 13 14 14 14 14 15 16 16 17 17 18 18 18 19 20 21 22 24 25 25 26 26 26 24 22 21 20 18 18 17 16 16 16 15 15 14 14 13 13 12 12 11 11 11 11 10 10 9 9 9 9 8
9 8 8 9 8 9 11 11 11 11 12 13 13 12 13 13 12 13 13 13 14 11 9 10 11 13 15 12 10 11 11 11 11 11 12 12 12 13 13 13 14 14 15 15 15 16 16 17 19 19 20 21 23 24 25 26 25 24 23 22 21 20 19 18 17 17 17 16 16 15 15 14 13 13 13 12 12 11 11 11 11 10 10 10 10 9
9 8 7 8 7 8 10 11 11 11 11 13 13 13 14 13 13 13 12 12 13 10 8 10 12 13 13 10 9 10 10 10 10 10 10 10 10 11 11 11 11 11 12 12 13 13 14 15 17 17 18 19 20 22 24 24 24 24 23 23 22 21 20 19 18 18 18 17 16 16 16 15 15 14 14 13 13 12 12 12 12 11 11 10 10 10
11 10 7 7 7 8 9 9 10 11 12 12 12 14 14 14 14 14 12 12 12 12 11 12 13 13 12 11 11 11 11 11 10 10 10 10 10 10 10 9 9 9 10 10 10 10 11 13 14 15 16 17 18 20 22 23 23 24 23 23 23 22 21 20 20 19 19 18 18 17 17 17 16 15 15 14 14 13 13 13 13 12 12 12 11 11
11 10 7 8 8 8 9 9 9 11 10 10 12 14 13 12 13 13 12 11 13 15 15 15 15 15 13 13 13 13 12 11 11 11 11 10 10 10 9 9 9 9 9 9 9 9 9 10 12 13 14 14 16 18 20 21 22 23 23 23 23 23 22 22 21 21 20 20 19 19 18 18 17 17 16 16 15 15 14 14 14 13 13 13 12 12
11 11 9 10 10 8 9 10 10 11 11 10 11 11 10 11 13 13 13 12 13 15 15 14 16 16 15 13 12 12 13 12 12 12 11 10 10 10 9 9 9 9 8 8 8 8 8 9 9 11 12 13 15 16 18 19 20 21 22 23 23 24 23 23 23 22 22 21 21 20 20 19 19 18 18 17 16 16 15 15 15 15 14 14 14 14
11 13 11 11 11 10 10 12 12 11 12 13 12 11 11 12 13 13 13 13 14 15 14 15 16 16 16 14 12 13 14 13 13 12 11 11 10 10 9 9 9 9 8 8 7 8 9 10 10 10 11 12 13 15 16 17 18 19 20 21 22 23 24 24 23 23 23 22 22 22 21 21 20 19 19 18 17 17 17 16 16 16 16 15 15 15
11 13 12 10 11 11 12 13 13 12 12 13 14 13 13 14 14 14 14 14 15 15 15 16 16 14 14 13 13 14 14 13 13 12 12 11 10 10 10 10 10 9 9 8 7 7 7 9 11 11 11 11 13 14 14 15 16 18 19 20 21 21 22 23 24 24 24 23 23 23 22 22 21 21 20 19 19 18 18 18 18 17 17 17 16 16
12 13 14 12 11 12 13 13 13 12 12 12 14 14 14 14 15 16 17 17 17 17 16 16 17 15 12 11 13 13 13 13 13 13 13 12 11 11 10 10 10 9 9 9 8 7 6 6 7 9 11 12 14 14 15 15 15 16 18 19 20 20 20 22 23 23 24 24 24 24 24 23 23 22 22 21 20 20 20 19 19 19 18 18 18 18
13 14 15 15 14 14 13 12 12 13 13 14 15 15 15 15 15 16 17 17 17 18 18 17 19 17 13 12 13 13 13 14 14 13 14 13 12 12 11 11 11 10 10 9 9 8 7 6 6 7 8 10 12 13 15 16 17 17 18 20 20 20 20 21 22 23 23 23 24 24 24 24 24 24 23 23 22 22 21 21 21 20 20 20 20 20
15 16 17 18 18 17 14 13 14 15 16 16 17 17 17 17 17 17 18 16 16 18 18 18 20 17 13 13 15 14 14 14 14 15 15 14 14 13 13 12 12 11 11 10 10 10 9 9 8 8 8 8 9 11 13 15 16 17 18 19 20 21 21 21 22 23 23 23 23 23 24 25 25 25 25 24 24 24 24 23 22 22 22 21 21 21
15 16 18 18 18 18 17 16 17 17 18 19 19 18 18 18 19 19 19 18 18 19 18 18 19 17 13 14 15 15 15 15 15 16 16 16 15 15 14 14 13 13 12 12 12 12 11 11 10 10 10 10 10 11 11 13 14 15 16 17 18 19 20 21 22 23 24 24 23 23 24 24 25 26 26 26 26 25 25 25 25 24 24 23 23 23
16 16 17 18 17 17 17 17 17 18 19 20 19 18 19 20 20 20 20 20 20 22 22 21 20 18 14 14 16 16 16 16 16 17 17 18 18 17 17 16 16 15 15 14 14 13 13 13 12 12 12 12 12 12 12 13 13 14 15 16 17 18 19 20 21 22 24 24 24 24 24 25 25 26 26 27 27 27 27 27 27 26 26 26 25 24
18 18 18 18 18 18 17 17 16 16 17 17 18 19 20 21 21 20 21 21 21 22 23 23 23 20 16 15 17 17 17 18 18 19 19 19 20 19 19 18 18 17 16 16 16 15 15 15 14 14 14 14 14 14 15 15 15 15 16 16 17 18 18 19 20 21 22 23 24 25 25 25 25 25 26 27 28 28 27 27 28 28 27 27 27 26
19 20 21 22 22 21 21 20 18 17 18 19 19 20 20 20 21 21 22 22 22 22 23 23 23 22 19 18 19 19 19 20 20 20 21 21 21 20 19 19 19 19 18 18 17 17 17 17 16 16 17 17 17 17 17 17 17 18 18 18 18 19 19 20 21 21 22 23 24 24 24 25 26 26 27 27 28 28 28 28 28 29 29 28 28 27
21 21 23 24 25 25 25 24 22 21 23 24 24 23 22 21 22 23 23 24 22 23 24 23 23 24 22 21 22 21 21 21 21 22 22 21 21 20 20 20 20 20 20 20 19 19 19 19 19 19 19 19 19 19 19 19 20 20 20 20 20 20 21 21 22 22 23 23 24 24 24 25 25 26 27 27 28 28 28 28 29 29 29 29 29 29
21 23 23 24 25 26 26 26 24 23 24 25 25 25 25 24 24 24 25 25 24 25 25 24 24 25 23 22 23 22 22 22 22 21 21 21 21 21 21 22 22 22 22 21 21 21 21 21 21 21 21 21 21 21 21 21 21 21 22 22 22 22 22 23 23 23 24 24 25 25 25 26 26 27 27 27 28 28 28 29 29 29 30 30 31 31
21 22 23 24 25 26 26 26 25 25 26 26 27 27 27 27 27 26 26 26 27 28 28 27 27 27 24 24 23 21 21 22 22 21 21 22 22 23 23 23 23 23 22 23 23 23 23 23 22 22 22 22 22 22 22 22 22 22 23 23 24 24 24 25 25 25 26 26 27 27 28 28 29 29 29 30 30 30 30 30 30 30 31 32 33 33
21 21 21 23 25 26 26 27 26 26 27 28 28 28 28 27 27 27 27 27 27 29 29 28 29 29 27 27 26 23 21 22 23 24 25 25 25 24 25 24 24 23 23 23 23 23 24 24 24 23 23 23 23 23 23 23 23 24 24 25 25 25 26 27 27 28 28 29 29 30 30 30 31 31 32 32 32 32 32 32 32 32 32 33 33 34
21 22 22 22 25 26 25 26 27 26 28 30 30 29 29 28 28 28 28 27 28 29 29 29 30 29 27 27 28 27 26 26 27 27 27 26 26 26 26 26 25 24 24 24 24 24 24 24 24 25 25 25 25 25 25 25 25 25 26 26 26 27 27 28 28 29 30 30 31 31 32 32 32 33 33 34 34 34 34 34 34 34 34 34 34 34
21 22 22 23 25 25 24 24 24 24 26 28 27 27 27 28 29 29 28 28 29 28 28 28 28 26 24 24 26 27 27 28 28 28 27 26 26 27 27 27 26 25 25 25 25 25 25 25 25 25 26 26 26 27 27 28 28 28 28 29 29 29 30 30 30 30 31 31 32 33 33 34 34 34 34 35 35 35 35 36 36 36 36 36 36 36
22 23 23 23 24 24 23 22 22 24 25 24 21 21 23 25 26 27 27 27 27 27 27 28 28 27 26 26 27 27 27 27 26 27 27 26 26 26 26 26 26 26 26 26 26 25 26 26 26 26 27 27 28 28 29 29 29 30 30 30 31 31 31 31 32 32 33 33 34 34 35 35 35 35 35 35 36 36 36 36 37 37 37 37 37 37
22 22 22 23 24 24 23 22 23 24 23 20 19 19 20 21 22 24 25 24 24 25 26 27 28 28 28 28 27 27 26 25 25 26 26 26 26 26 26 25 25 25 26 26 26 26 26 26 27 27 27 28 29 29 29 30 30 30 30 31 31 31 31 32 32 33 33 34 34 35 35 35 35 35 36 36 36 36 36 37 37 37 37 37 38 38
22 22 22 22 23 23 23 23 23 22 20 20 21 20 20 21 22 23 23 23 22 23 24 24 24 24 24 24 24 24 24 24 24 24 24 25 25 25 25 25 25 25 26 26 26 26 26 26 27 27 28 28 29 29 29 30 30 30 31 31 31 31 31 31 32 32 33 33 34 34 35 35 35 35 35 36 36 36 36 37 37 37 37 38 38 37
22 22 22 22 22 23 23 24 24 24 24 24 23 21 21 21 21 22 23 22 21 21 22 22 21 21 21 22 22 22 22 22 22 22 22 22 23 24 25 25 25 26 26 26 26 26 26 27 27 28 28 29 29 30 30 30 30 31 31 31 31 31 31 32 32 32 33 33 34 34 35 35 35 35 35 35 35 36 36 36 37 37 37 38 38 37
21 21 21 22 22 22 23 24 23 24 24 21 19 19 19 20 20 21 23 22 21 20 21 21 20 20 20 21 21 21 22 22 21 20 20 21 22 23 24 25 25 26 26 26 26 27 27 28 28 29 29 30 30 31 31 31 31 31 31 31 31 31 31 32 32 32 33 33 33 34 35 35 35 36 35 35 36 36 36 36 37 37 37 37 37 37
20 21 21 22 23 22 23 24 23 23 22 20 19 19 19 19 20 21 22 22 20 20 20 20 20 20 20 21 21 22 22 23 21 19 20 21 22 23 24 25 25 26 26 27 27 28 28 29 30 30 30 31 31 31 31 31 32 32 32 32 32 32 32 32 32 33 33 33 34 34 35 35 35 35 36 36 36 36 36 36 36 37 37 37 37 37
20 21 21 23 23 23 24 24 24 23 22 20 20 21 20 20 20 21 21 21 20 20 20 20 20 20 21 21 22 22 23 22 21 20 21 22 23 23 24 25 25 26 27 28 28 29 29 30 30 30 30 31 31 31 31 32 32 33 33 33 33 33 33 33 34 34 34 34 35 35 35 35 35 35 36 36 35 35 35 36 36 36 36 36 36 36
20 20 21 22 23 24 24 25 24 23 21 20 21 21 20 20 21 22 22 20 20 21 21 21 22 22 21 22 22 22 22 22 23 23 24 25 25 25 26 26 27 27 28 29 29 30 30 31 31 31 31 31 31 31 31 32 33 33 33 34 34 34 34 35 35 35 36 36 36 36 36 36 36 36 36 36 36 36 36 35 35 35 35 35 35 35
20 20 21 22 23 23 23 24 24 23 20 20 21 21 20 21 21 21 21 21 22 23 23 23 23 23 23 23 23 23 24 25 26 26 27 27 27 27 27 28 29 29 30 30 31 31 31 31 31 32 32 31 31 32 32 32 33 33 34 34 35 35 36 36 36 37 37 37 37 36 37 37 37 37 37 37 37 37 36 36 35 34 34 34 34 34
19 20 21 21 21 22 22 23 23 22 19 19 21 20 20 21 21 21 22 23 24 24 24 25 24 24 25 25 25 25 26 27 27 27 28 28 28 28 29 29 30 30 31 31 31 32 32 32 32 32 32 32 32 32 33 33 34 34 34 35 35 36 36 36 37 37 37 36 36 37 37 37 37 37 37 37 37 37 36 35 34 34 34 34 33 32
19 20 21 20 19 20 21 20 20 19 18 19 20 20 20 22 23 23 24 25 24 25 25 25 25 25 26 26 27 27 28 28 29 29 29 30 30 30 31 31 32 32 32 33 33 33 33 33 34 34 34 34 34 34 34 35 36 36 36 36 36 36 37 37 37 37 37 36 36 36 36 36 36 36 36 36 36 35 34 34 33 33 32 31 30 30
18 18 20 20 19 20 22 22 21 22 22 22 22 23 24 24 25 26 26 26 26 26 26 26 27 27 27 28 29 29 30 30 31 31 31 31 32 32 33 33 34 34 34 34 34 34 34 34 35 35 35 35 35 35 35 36 36 37 37 37 37 37 37 37 37 37 37 37 36 36 36 36 35 35 35 35 34 33 32 31 31 30 29 28 28 27
19 19 20 21 21 22 24 24 24 24 25 25 25 26 26 27 27 27 28 28 28 28 29 29 30 30 30 31 31 31 32 32 32 32 33 33 33 34 34 34 35 35 34 34 34 34 34 35 35 35 35 35 35 35 35 36 36 37 38 37 37 37 37 37 37 38 37 37 36 36 36 35 35 34 34 32 31 30 30 29 29 28 27 26 25 25
18 18 19 21 22 22 22 21 22 24 25 26 27 27 27 27 27 27 28 29 30 30 31 31 32 33 33 33 34 34 34 34 34 34 34 34 35 35 35 35 35 35 35 35 35 35 35 35 35 35 35 36 36 35 36 36 36 37 37 37 37 37 37 37 37 37 37 36 36 35 34 34 33 31 30 29 29 28 28 27 26 25 25 24 24 23
17 17 19 21 21 22 23 23 25 26 27 26 26 26 26 27 27 28 29 30 30 31 32 32 32 33 33 34 34 35 35 35 35 35 35 35 35 35 34 35 35 35 35 35 35 35 35 35 36 36 36 36 35 35 35 35 35 36 36 35 35 36 36 36 36 36 36 35 35 34 33 31 29 28 28 27 26 25 24 23 22 22 21 21 21 21
18 19 20 20 21 22 23 24 25 25 26 26 26 26 27 28 29 30 31 31 32 32 32 33 33 33 33 33 33 34 34 34 34 35 35 35 34 34 34 34 34 34 34 34 34 34 35 35 35 35 35 35 34 33 33 34 34 34 33 33 34 34 34 35 35 34 34 33 32 30 29 27 26 26 25 23 21 20 19 19 19 19 19 19 19 19
18 19 19 20 21 22 22 22 24 25 26 26 26 28 28 29 30 31 32 32 33 33 33 34 34 34 34 34 34 33 34 33 33 34 34 34 34 34 34 34 34 34 34 34 34 34 34 34 34 33 33 33 32 32 32 32 31 31 30 31 31 31 31 31 30 29 28 27 26 25 24 23 22 21 19 18 17 17 16 16 16 16 17 17 16 15
18 19 19 21 22 23 24 25 26 26 27 28 28 29 29 30 31 31 32 32 32 32 33 33 34 34 34 34 34 33 33 33 33 33 33 33 34 34 34 34 34 34 34 33 33 33 33 33 32 32 32 31 30 30 30 28 27 28 28 28 27 26 26 24 23 21 20 19 18 18 17 17 16 16 16 16 17 16 15 14 13 13 13 13 13 13
Wind_Direction
246 244 240 242 242 241 242 248 253 252 247 243 240 238 235 234 230 228 232 236 244 245 238 240 246 248 251 249 244 242 242 241 239 237 238 238 236 234 232 231 230 229 227 224 224 225 228 232 234 236 239 241 242 245 247 250 253 257 261 262 263 265 265 265 267 267 267 265 263 260 257 255 253 252 252 253 255 256 256 257 257 257 256 256 256 256
247 246 243 244 249 247 244 244 245 245 243 241 240 236 232 235 233 228 234 238 244 248 243 246 251 250 252 252 245 242 242 240 238 236 236 236 236 237 236 234 232 230 228 224 225 226 226 229 232 235 239 240 242 244 246 248 251 254 258 261 262 263 263 263 264 267 269 268 266 263 257 255 253 252 253 254 255 256 256 256 257 257 256 255 255 255
245 246 241 242 246 243 241 241 239 242 242 240 239 238 235 235 233 232 236 239 245 249 249 253 256 254 254 253 248 245 244 240 237 236 234 234 236 237 238 236 233 230 227 225 226 227 226 228 231 234 238 240 242 244 245 247 249 251 255 258 259 261 260 259 260 263 267 267 266 263 258 254 253 252 253 253 254 254 254 255 257 257 256 255 255 254
249 245 238 240 243 240 240 239 238 241 242 240 238 237 238 237 238 240 237 238 245 250 256 260 260 259 255 252 249 245 245 242 237 235 235 235 237 237 238 238 234 230 227 226 227 228 229 229 231 233 237 240 242 243 243 245 247 249 252 255 256 258 257 257 257 259 262 263 261 260 256 253 253 252 252 252 252 252 252 253 256 256 255 254 254 253
251 246 240 242 243 243 242 239 239 244 243 240 240 240 242 242 243 248 245 244 249 250 256 261 262 260 252 249 248 242 241 242 237 234 235 236 237 238 240 240 238 236 233 230 229 230 231 231 231 233 236 239 242 243 243 244 246 248 250 252 254 256 256 255 254 255 257 257 257 256 252 250 250 250 249 249 248 248 248 249 252 254 253 253 252 251
250 248 244 243 244 244 243 242 241 246 247 242 240 242 246 248 246 248 249 251 255 252 253 260 262 257 247 245 245 239 238 239 235 233 234 236 237 238 241 241 241 240 240 239 236 235 235 235 234 234 236 239 241 243 243 244 244 246 248 250 252 255 254 252 252 252 253 254 255 254 250 247 245 245 245 246 244 244 245 247 249 251 252 253 252 251
249 246 245 246 247 244 245 246 242 244 249 248 242 240 244 247 246 246 248 251 257 256 253 257 261 258 251 246 243 242 241 237 235 235 236 237 238 239 241 242 243 242 243 243 242 241 240 238 237 237 237 238 241 242 243 244 244 244 246 248 250 253 252 251 251 250 251 253 253 252 249 246 243 242 242 242 242 242 245 247 249 250 251 252 252 252
246 242 242 246 248 246 248 248 242 242 248 251 250 243 241 242 243 245 248 251 258 261 256 255 258 260 258 252 244 245 245 239 236 238 238 238 239 240 242 243 245 246 247 246 246 245 244 242 241 241 240 239 239 241 242 243 242 242 244 246 248 251 251 250 250 250 250 251 250 248 246 243 243 244 242 241 243 244 246 248 250 251 252 252 252 252
249 247 243 246 248 248 250 251 244 242 246 253 254 248 243 242 243 246 250 255 259 261 259 254 252 257 258 252 244 245 246 242 239 240 241 242 242 244 246 248 250 251 252 251 250 249 247 246 244 243 243 241 239 239 240 241 240 240 241 242 243 247 248 248 248 248 248 248 247 245 242 239 242 244 243 244 246 247 248 249 250 252 252 252 252 251
254 256 254 250 250 250 252 254 250 246 247 248 247 245 244 244 246 248 253 258 257 258 262 255 248 258 261 252 243 244 247 245 243 245 246 245 246 249 251 253 255 255 255 255 254 254 252 249 247 245 244 242 240 238 238 238 238 238 239 239 239 242 246 246 245 244 244 244 244 243 240 237 238 241 244 245 247 248 250 249 251 251 250 251 251 250
252 254 259 256 254 253 250 249 252 252 247 240 240 243 244 246 249 252 255 259 258 258 260 253 247 257 262 255 247 248 252 251 250 251 249 247 250 253 255 257 259 259 260 260 259 258 256 251 247 244 241 241 240 237 236 236 235 235 236 236 237 240 243 244 241 239 240 241 241 241 240 237 236 239 242 245 247 248 249 249 251 251 250 249 249 249
248 247 254 256 255 252 247 245 248 249 244 240 242 244 246 248 252 254 252 253 257 259 256 249 249 254 257 256 250 250 256 256 254 254 253 254 256 259 260 261 263 264 264 263 262 260 256 249 244 241 238 238 238 235 233 233 233 232 234 235 235 238 240 241 239 237 237 239 238 239 240 238 238 239 241 245 247 249 249 249 250 250 250 249 249 249
251 248 251 252 250 247 245 244 243 243 244 244 244 244 247 250 251 254 253 252 257 258 252 250 254 254 256 257 252 250 255 256 255 257 257 259 261 263 264 264 264 265 266 264 262 259 254 247 242 240 237 234 234 232 230 230 230 230 232 233 234 235 237 239 238 236 237 238 237 238 238 238 239 240 242 244 247 249 250 250 249 248 249 249 249 250
256 247 244 246 247 246 244 242 242 244 242 242 242 243 248 252 253 255 257 257 259 259 253 253 256 257 258 257 255 255 256 256 254 254 256 258 260 263 265 266 267 267 267 266 263 259 252 246 243 239 234 231 231 230 228 228 228 228 230 232 233 234 235 236 237 236 237 238 237 238 238 238 239 241 242 245 247 249 250 250 250 249 249 249 249 251
258 250 241 243 248 245 243 247 253 255 246 241 243 246 250 254 256 259 262 262 263 261 251 248 254 258 258 255 256 258 257 254 250 247 251 254 256 259 262 266 271 271 270 269 267 263 254 245 239 234 230 230 231 229 226 225 225 226 228 230 232 233 234 234 235 236 237 238 239 239 240 241 242 243 244 246 248 249 250 251 252 252 250 250 250 250
256 256 247 249 253 249 250 253 255 256 251 244 245 249 252 254 256 261 266 268 271 268 258 253 257 261 261 256 254 256 255 252 247 244 246 248 251 254 259 266 273 275 275 272 269 264 255 244 236 231 229 230 229 226 223 224 225 227 229 230 232 233 234 235 236 237 239 240 240 241 242 243 244 245 246 248 249 249 250 251 253 254 253 252 250 249
252 255 246 247 251 250 256 258 249 252 253 246 247 250 252 256 258 261 265 265 265 266 263 259 259 261 261 258 252 251 251 248 244 244 244 246 248 251 258 267 271 274 278 276 271 263 254 245 238 233 230 227 225 222 222 224 226 228 230 231 232 233 235 237 238 240 241 242 242 242 242 243 245 246 247 249 249 250 251 252 254 255 255 254 252 251
256 257 247 246 252 250 254 257 251 250 253 251 252 253 252 257 258 259 264 264 260 263 265 259 258 260 262 259 250 244 245 244 244 245 244 244 246 248 254 262 267 271 274 277 274 265 253 244 239 235 231 227 224 222 224 226 228 230 232 233 234 234 237 239 239 241 242 242 243 243 243 244 245 247 249 250 251 251 253 253 255 256 256 256 255 253
256 258 251 248 254 251 249 254 253 249 251 255 259 258 255 258 257 254 259 264 263 266 267 262 260 261 262 258 248 243 244 243 243 243 243 242 243 247 252 257 264 268 271 274 275 269 258 248 240 234 230 226 223 222 224 227 230 232 233 234 236 237 239 240 240 241 241 241 243 245 245 245 246 247 248 250 251 252 253 254 254 255 256 256 256 256
254 257 256 252 253 254 252 252 253 250 249 253 257 256 256 260 261 259 259 263 266 268 270 269 265 265 265 261 252 246 242 241 242 243 244 244 244 248 252 256 261 265 267 270 271 270 265 252 239 231 227 225 225 226 226 228 230 231 233 234 236 240 242 242 241 241 241 241 243 245 246 246 246 247 248 249 251 253 254 255 255 255 256 256 257 256
255 256 257 254 252 256 256 252 254 258 254 252 254 254 256 260 262 263 261 260 264 266 269 271 268 267 271 268 259 247 239 240 244 245 245 245 245 248 252 255 258 260 262 265 265 266 266 258 241 231 229 231 233 234 233 232 234 235 235 234 235 240 243 243 242 242 243 244 244 245 245 246 246 247 248 249 251 253 255 256 256 257 257 257 257 257
258 257 258 258 256 258 258 255 258 263 262 261 260 258 259 261 261 264 263 260 261 264 266 268 269 270 270 268 261 249 243 246 246 244 245 244 244 247 249 252 255 255 256 257 258 259 258 257 252 243 239 239 240 240 238 239 241 242 240 238 240 244 246 245 244 243 244 245 246 246 247 247 247 247 248 249 252 254 255 256 256 257 258 259 258 257
262 260 260 260 258 259 261 258 258 261 263 264 263 261 263 263 260 262 265 266 264 265 267 267 268 269 267 264 261 254 250 251 249 246 244 243 245 247 246 248 251 251 251 251 251 252 250 249 251 253 253 250 248 245 243 243 245 246 244 243 245 248 248 248 247 245 245 246 247 248 249 249 249 249 250 251 253 255 256 256 257 257 258 259 259 259
261 261 260 261 261 261 260 259 258 259 261 262 261 260 261 263 264 264 267 271 268 265 267 266 265 266 264 262 261 258 255 253 251 249 247 245 247 247 246 247 249 249 249 249 247 247 246 245 247 252 256 256 254 251 248 247 247 246 245 245 247 249 250 250 250 249 248 248 249 251 252 252 251 251 252 253 255 256 257 257 258 258 258 259 260 260
261 261 261 263 264 262 259 259 258 258 258 260 261 260 261 264 266 265 267 268 266 263 264 263 264 267 264 260 258 258 257 254 251 251 249 247 247 247 247 248 248 249 249 248 248 247 247 248 249 252 255 256 256 253 251 251 251 249 248 249 251 252 253 252 251 250 249 250 251 253 254 253 253 253 253 254 256 257 258 258 258 259 259 259 259 260
262 262 261 262 263 262 262 263 265 264 261 259 260 261 263 263 263 265 266 264 263 265 263 260 263 266 262 256 255 256 256 254 250 249 249 247 246 246 246 247 247 248 248 248 249 250 250 252 253 255 257 258 258 256 255 255 255 254 254 254 255 256 256 254 253 252 252 252 254 255 255 254 254 255 256 256 257 258 259 259 258 258 259 259 259 259
262 263 261 261 262 264 266 269 272 273 267 265 265 263 262 262 262 263 264 263 265 267 263 261 265 265 259 255 255 255 256 255 252 251 249 247 246 246 247 248 249 249 250 251 252 253 254 256 257 259 260 261 261 260 259 259 259 258 257 258 259 259 259 258 257 256 256 256 257 258 258 257 257 258 259 259 259 259 261 260 258 258 259 259 258 258
263 263 262 261 262 264 267 269 271 271 268 267 268 266 264 263 261 260 261 263 266 267 264 264 267 265 261 260 258 257 258 257 254 253 250 248 247 248 251 252 252 253 254 255 255 256 258 259 261 262 262 263 263 262 262 261 261 260 260 261 261 261 261 260 260 259 258 257 258 259 260 260 259 259 260 261 261 261 261 260 258 258 259 258 258 258
263 264 263 263 264 265 266 267 268 268 266 266 266 266 265 264 262 261 260 261 263 263 264 267 269 265 262 264 262 259 257 257 256 255 253 250 249 251 253 254 255 256 257 258 260 260 261 262 263 263 264 264 264 263 263 262 262 262 262 263 264 264 263 263 262 261 260 258 258 259 259 260 260 260 261 262 262 262 262 260 259 258 258 258 258 259
264 265 265 264 266 267 266 266 266 265 266 265 264 264 264 264 264 263 263 262 261 262 264 267 267 265 264 266 266 262 259 259 259 257 255 254 253 254 255 255 256 257 258 260 261 262 263 263 263 264 265 265 265 264 264 263 263 262 263 264 265 265 265 265 264 264 263 262 261 260 261 261 261 261 262 262 263 263 262 261 260 259 259 258 259 259
264 266 266 267 267 267 266 266 265 264 265 265 264 264 264 264 264 263 264 263 262 263 264 265 265 265 264 264 263 261 260 260 259 257 257 256 256 255 255 256 256 257 258 259 260 261 262 262 263 264 264 264 264 265 265 264 264 264 264 265 266 266 266 266 265 265 265 264 263 263 263 262 263 263 263 263 263 262 262 262 261 260 260 259 259 259
264 265 267 267 267 268 267 265 265 267 268 267 265 264 263 264 264 263 263 262 261 263 264 264 265 267 266 263 260 259 260 260 259 259 258 257 256 256 256 256 256 257 258 258 259 260 261 261 262 263 264 263 264 264 265 266 266 266 267 267 267 267 267 267 266 266 265 265 264 264 264 264 264 265 264 264 263 263 262 262 261 260 260 260 260 259
265 266 267 267 267 269 269 267 268 271 271 269 267 264 263 263 263 264 263 262 261 262 263 263 265 267 267 264 260 260 262 261 260 259 258 256 256 256 256 256 256 257 258 259 259 260 261 261 262 262 263 264 264 265 266 267 268 268 268 268 268 268 268 268 267 266 266 265 265 265 265 265 265 265 265 264 264 263 263 262 261 261 261 261 260 260
266 266 267 267 268 269 270 270 270 270 268 269 271 270 268 267 266 265 265 265 263 263 263 265 266 266 266 264 263 263 263 261 260 259 257 257 257 256 255 255 257 258 258 258 259 260 261 262 262 262 263 264 265 266 268 268 268 268 269 269 268 268 268 267 267 266 266 266 267 267 266 266 266 265 265 264 264 264 263 262 262 261 261 260 260 260
265 265 266 266 266 268 269 269 268 268 268 269 272 271 271 271 270 269 268 267 267 266 266 267 267 266 265 265 264 263 262 261 260 258 257 256 255 253 253 255 257 258 259 259 261 262 262 262 263 263 263 264 265 266 267 267 267 268 269 269 268 268 268 267 267 267 267 267 267 267 267 267 266 266 265 265 264 264 263 263 262 261 261 260 259 259
263 264 265 265 265 266 266 264 265 269 273 272 270 270 271 270 270 269 268 267 267 268 267 267 266 266 265 264 263 262 261 259 258 257 256 255 253 251 252 255 257 258 260 262 262 263 264 264 264 264 265 265 266 266 266 267 267 267 268 268 269 269 269 268 268 268 268 268 267 267 267 267 266 266 265 264 264 264 263 263 262 261 261 260 260 259
261 263 263 263 263 263 265 265 266 271 274 273 270 270 272 272 270 269 268 267 267 268 267 267 266 266 265 263 262 262 259 256 255 255 254 253 252 253 254 257 259 260 261 262 262 263 264 264 265 266 266 266 267 267 268 268 267 267 267 268 269 269 270 270 270 270 270 269 268 268 267 267 267 266 265 264 264 263 263 263 262 262 261 260 259 259
259 260 261 262 263 263 265 268 268 270 272 273 271 270 273 272 271 270 269 267 266 267 267 267 267 266 265 264 263 261 258 255 254 254 254 254 254 256 258 259 260 261 262 262 263 264 265 266 267 267 268 268 269 269 269 269 268 268 268 268 269 269 270 270 270 271 270 269 269 268 268 267 267 266 265 264 264 264 263 263 262 262 261 260 259 259
259 260 261 262 263 263 265 267 268 268 271 273 272 272 273 272 271 270 266 264 265 269 269 266 266 267 266 265 265 262 258 255 252 252 257 260 260 260 261 261 262 263 263 263 264 265 266 267 268 269 269 269 269 270 270 269 269 268 268 268 269 269 269 270 271 271 271 270 270 269 269 268 267 266 265 265 264 264 264 264 263 262 260 260 259 259
259 260 260 261 262 263 264 266 268 269 271 272 272 273 273 271 270 268 264 263 266 270 270 268 267 268 267 266 265 261 257 257 254 255 262 266 264 263 264 264 264 265 265 266 266 267 267 268 268 269 269 269 270 270 271 270 269 269 269 269 270 270 270 272 272 272 271 271 271 270 269 268 267 266 266 265 265 265 265 265 264 262 261 260 259 258
260 260 261 262 263 263 264 265 268 269 270 271 272 272 272 269 266 264 264 266 268 270 271 270 269 269 268 266 264 260 259 260 260 261 265 267 266 265 266 266 266 266 267 268 268 268 268 268 268 269 269 269 270 271 271 271 269 269 269 269 270 271 272 273 273 273 273 272 270 270 269 268 267 266 266 266 266 266 266 266 265 263 261 259 258 257
263 263 264 264 264 265 265 266 268 268 269 273 274 272 270 268 265 264 266 268 269 271 272 271 269 269 268 266 263 262 262 263 263 264 265 266 267 267 267 267 267 268 268 269 269 270 270 269 269 269 269 270 270 271 271 271 270 270 270 270 271 273 274 274 274 274 273 271 270 269 269 268 267 266 266 265 265 265 265 265 264 261 259 258 258 257
266 266 266 265 265 267 265 265 268 268 269 276 276 271 268 268 268 270 270 270 271 272 271 270 269 268 268 266 265 265 265 265 265 265 265 266 266 267 267 268 269 269 269 270 270 271 271 270 270 270 270 270 271 271 272 271 271 272 272 272 273 275 275 275 274 274 272 270 270 270 269 268 267 266 265 265 264 264 264 263 261 259 258 258 256 255
266 267 268 267 267 266 264 265 269 269 270 276 276 272 272 272 272 274 274 272 273 272 271 270 269 268 268 268 268 268 268 268 268 268 268 267 267 268 268 269 269 270 270 270 270 271 271 271 271 270 270 270 271 271 272 272 272 272 272 273 274 275 275 275 274 273 271 270 270 270 269 268 267 265 264 264 263 262 261 259 258 257 256 255 252 250
268 269 270 269 268 269 268 269 272 272 272 276 276 274 275 275 274 274 275 274 273 273 272 271 271 270 270 269 269 270 270 269 270 270 270 270 270 270 271 271 271 271 271 271 271 271 270 270 271 271 270 270 271 272 272 272 272 272 273 274 275 275 275 274 274 273 272 271 270 269 269 268 266 265 264 263 261 259 257 255 254 253 252 250 248 246
271 273 272 270 271 273 272 270 271 272 273 276 276 276 276 275 274 274 275 274 274 273 273 272 272 272 271 271 271 271 270 270 270 270 270 270 270 270 271 271 271 272 272 272 272 272 271 271 271 271 271 271 272 272 272 272 272 272 274 275 275 275 275 275 274 273 271 270 270 269 268 267 265 264 263 261 258 256 254 253 251 249 247 246 244 241
274 275 274 273 273 273 272 271 273 275 276 278 278 277 276 275 274 274 275 275 274 274 273 273 273 273 272 272 271 271 271 271 271 270 270 270 270 270 270 270 271 271 271 271 271 271 271 271 271 272 272 273 273 273 273 273 273 274 275 276 276 276 275 274 273 272 271 270 269 268 267 265 263 261 258 255 253 252 252 250 248 245 242 239 238 238
277 279 278 276 274 274 274 275 277 278 278 278 278 278 277 276 276 276 276 275 276 275 275 274 274 273 273 272 272 272 272 271 271 271 271 271 271 271 271 271 271 271 271 271 271 271 271 271 271 272 273 274 274 274 274 273 274 275 276 276 276 276 275 275 274 273 272 270 268 266 264 261 257 255 252 250 250 248 247 243 240 236 233 231 232 234
280 280 280 280 278 276 276 278 280 281 280 279 279 279 278 278 279 279 278 277 276 276 276 275 275 274 274 273 273 273 272 272 272 272 272 271 271 272 272 272 272 272 272 272 272 272 271 271 271 272 272 273 274 274 273 274 274 275 276 276 277 277 276 275 274 273 271 268 265 262 258 254 250 248 246 244 241 237 233 230 228 226 225 227 229 230
282 281 282 282 281 279 280 283 285 284 282 282 282 282 281 280 280 280 280 278 277 277 277 276 275 274 273 273 273 272 272 272 272 272 272 272 272 272 272 272 273 273 273 272 272 271 271 270 271 271 271 272 273 273 274 275 275 275 276 277 278 278 277 275 273 271 268 263 259 254 249 245 241 236 231 227 222 218 217 219 220 219 218 219 219 218
285 285 285 284 283 283 284 286 286 284 283 283 284 284 283 282 282 282 281 280 279 278 278 277 276 275 274 272 272 271 271 271 272 272 272 272 272 272 272 272 272 272 272 272 271 271 271 270 270 270 271 271 272 273 274 274 274 275 277 279 279 278 275 272 269 266 261 254 247 239 232 226 219 213 209 206 204 202 202 202 202 200 198 198 199 199